| time (UTC) | temp F | wind direction | speed knots | gust knots | rain 1hr in | rain 24hr in | rain mn in | humidity % | barometer mb |
| 20260903015644 | 51 | 126 | 1.7 | 5.2 | 0.04 | 0.13 | 0.13 | 90 | 1006.6 |
| 20260903015424 | 51 | 125 | 1.7 | 5.2 | 0.05 | 0.13 | 0.13 | 90 | 1006.6 |
| 20260903014644 | 51 | 123 | 1.7 | 5.2 | 0.06 | 0.13 | 0.13 | 90 | 1006.5 |
| 20260903014143 | 51 | 143 | 0.9 | 3.5 | 0.07 | 0.13 | 0.13 | 89 | 1006.8 |
| 20260903013643 | 51 | 144 | 1.7 | 6.1 | 0.07 | 0.13 | 0.13 | 88 | 1006.7 |
| 20260903013422 | 51 | 180 | 2.6 | 6.1 | 0.08 | 0.13 | 0.13 | 86 | 1006.5 |
| 20260903012638 | 51 | 224 | 2.6 | 6.1 | 0.08 | 0.13 | 0.13 | 86 | 1006.2 |
| 20260903012131 | 51 | 194 | 2.6 | 7.8 | 0.08 | 0.13 | 0.13 | 87 | 1006.7 |
| 20260903011625 | 51 | 228 | 2.6 | 7.8 | 0.07 | 0.12 | 0.12 | 87 | 1007.1 |
| 20260903011119 | 51 | 240 | 3.5 | 7.0 | 0.07 | 0.12 | 0.12 | 87 | 1007.3 |
| 20260903010613 | 51 | 223 | 2.6 | 6.1 | 0.07 | 0.12 | 0.12 | 86 | 1007.4 |
| 20260903010109 | 52 | 227 | 3.5 | 7.0 | 0.06 | 0.11 | 0.11 | 85 | 1007.4 |
| 20260903005601 | 52 | 242 | 3.5 | 7.8 | 0.05 | 0.09 | 0.09 | 84 | 1007.5 |
| 20260903005056 | 53 | 259 | 4.3 | 13.0 | 0.04 | 0.08 | 0.08 | 82 | 1007.3 |
| 20260903004548 | 54 | 257 | 3.5 | 13.9 | 0.04 | 0.07 | 0.07 | 79 | 1007.1 |
| 20260903004043 | 55 | 263 | 2.6 | 13.9 | 0.03 | 0.06 | 0.06 | 80 | 1007.0 |
| 20260903003536 | 55 | 258 | 2.6 | 9.6 | 0.03 | 0.06 | 0.06 | 85 | 1007.1 |
| 20260903003031 | 55 | 298 | 1.7 | 9.6 | 0.02 | 0.05 | 0.05 | 85 | 1007.0 |
| 20260903002811 | 56 | 286 | 1.7 | 6.1 | 0.02 | 0.05 | 0.05 | 86 | 1006.9 |
| 20260903002019 | 56 | 286 | 1.7 | 6.1 | 0.02 | 0.05 | 0.05 | 85 | 1007.0 |
| 20260903001512 | 56 | 272 | 2.6 | 7.0 | 0.02 | 0.05 | 0.05 | 84 | 1006.8 |
| 20260903001015 | 56 | 258 | 3.5 | 7.0 | 0.02 | 0.05 | 0.05 | 83 | 1006.7 |
| 20260903000500 | 56 | 202 | 3.5 | 7.8 | 0.02 | 0.05 | 0.05 | 82 | 1006.6 |
| 20260902235955 | 56 | 196 | 4.3 | 9.6 | 0.01 | 0.04 | 0.05 | 81 | 1006.6 |
| 20260902235449 | 57 | 219 | 4.3 | 9.6 | 0.01 | 0.04 | 0.04 | 79 | 1006.5 |
| 20260902234947 | 58 | 219 | 3.5 | 8.7 | 0.00 | 0.03 | 0.04 | 77 | 1006.4 |
| 20260902234437 | 59 | 196 | 3.5 | 8.7 | 0.00 | 0.03 | 0.03 | 73 | 1006.1 |
| 20260902233931 | 59 | 209 | 3.5 | 8.7 | 0.00 | 0.03 | 0.03 | 72 | 1006.2 |
| 20260902233426 | 59 | 211 | 3.5 | 8.7 | 0.01 | 0.03 | 0.03 | 71 | 1006.0 |
| 20260902233158 | 59 | 178 | 3.5 | 8.7 | 0.01 | 0.03 | 0.03 | 72 | 1006.0 |
| 20260902232414 | 58 | 181 | 3.5 | 13.0 | 0.01 | 0.03 | 0.03 | 72 | 1006.0 |
| 20260902231909 | 58 | 198 | 3.5 | 13.0 | 0.01 | 0.03 | 0.03 | 72 | 1006.0 |
| 20260902231409 | 58 | 179 | 5.2 | 13.0 | 0.01 | 0.03 | 0.03 | 72 | 1006.0 |
| 20260902231404 | 58 | 178 | 4.3 | 13.0 | 0.01 | 0.03 | 0.03 | 72 | 1006.0 |
| 20260902230401 | 58 | 196 | 5.2 | 13.0 | 0.01 | 0.03 | 0.03 | 73 | 1006.0 |
| 20260902230356 | 58 | 142 | 4.3 | 13.0 | 0.01 | 0.03 | 0.03 | 72 | 1006.0 |
| 20260902225337 | 58 | 199 | 5.2 | 14.8 | 0.01 | 0.03 | 0.03 | 73 | 1005.9 |
| 20260902224831 | 58 | 206 | 5.2 | 14.8 | 0.01 | 0.03 | 0.03 | 73 | 1006.0 |
| 20260902224332 | 58 | 200 | 6.1 | 14.8 | 0.01 | 0.03 | 0.03 | 72 | 1006.0 |
| 20260902223833 | 58 | 132 | 6.1 | 14.8 | 0.01 | 0.03 | 0.03 | 72 | 1005.8 |
| 20260902223331 | 58 | 213 | 5.2 | 13.0 | 0.00 | 0.02 | 0.02 | 72 | 1005.6 |
| 20260902222830 | 58 | 178 | 5.2 | 14.8 | 0.00 | 0.02 | 0.02 | 72 | 1005.7 |
| 20260902222329 | 58 | 182 | 4.3 | 16.5 | 0.00 | 0.02 | 0.02 | 71 | 1005.7 |
| 20260902222109 | 58 | 196 | 5.2 | 16.5 | 0.00 | 0.02 | 0.02 | 71 | 1005.7 |
| 20260902221329 | 58 | 134 | 5.2 | 12.2 | 0.00 | 0.02 | 0.02 | 71 | 1005.7 |
| 20260902220829 | 57 | 221 | 4.3 | 12.2 | 0.00 | 0.02 | 0.02 | 72 | 1005.8 |
| 20260902220611 | 57 | 169 | 4.3 | 12.2 | 0.00 | 0.02 | 0.02 | 72 | 1005.8 |
| 20260902215829 | 57 | 146 | 3.5 | 10.4 | 0.00 | 0.02 | 0.02 | 73 | 1005.9 |
| 20260902215330 | 57 | 139 | 3.5 | 12.2 | 0.00 | 0.02 | 0.02 | 73 | 1006.0 |
| 20260902214830 | 57 | 163 | 4.3 | 12.2 | 0.00 | 0.02 | 0.02 | 72 | 1006.0 |
| 20260902214326 | 57 | 144 | 5.2 | 12.2 | 0.00 | 0.02 | 0.02 | 72 | 1005.9 |
| 20260902213824 | 56 | 179 | 4.3 | 12.2 | 0.00 | 0.02 | 0.02 | 72 | 1006.1 |
| 20260902213325 | 56 | 98 | 4.3 | 13.9 | 0.00 | 0.02 | 0.02 | 72 | 1006.1 |
| 20260902212825 | 56 | 120 | 4.3 | 13.9 | 0.00 | 0.02 | 0.02 | 73 | 1006.1 |
| 20260902212326 | 56 | 148 | 4.3 | 17.4 | 0.00 | 0.02 | 0.02 | 73 | 1006.2 |
| 20260902211835 | 56 | 144 | 4.3 | 17.4 | 0.00 | 0.02 | 0.02 | 73 | 1006.0 |
| 20260902211615 | 56 | 153 | 4.3 | 15.6 | 0.00 | 0.02 | 0.02 | 74 | 1006.2 |
| 20260902210833 | 55 | 161 | 4.3 | 14.8 | 0.00 | 0.02 | 0.02 | 75 | 1006.1 |
| 20260902210333 | 55 | 174 | 3.5 | 13.9 | 0.00 | 0.02 | 0.02 | 76 | 1006.2 |
| 20260902210109 | 55 | 133 | 4.3 | 13.9 | 0.00 | 0.02 | 0.02 | 77 | 1006.1 |
| 20260902205330 | 55 | 139 | 4.3 | 12.2 | 0.00 | 0.02 | 0.02 | 78 | 1006.1 |
| 20260902204831 | 55 | 180 | 4.3 | 14.8 | 0.00 | 0.02 | 0.02 | 78 | 1006.2 |
| 20260902204558 | 55 | 182 | 4.3 | 14.8 | 0.00 | 0.02 | 0.02 | 77 | 1006.4 |
| 20260902203842 | 55 | 174 | 4.3 | 13.0 | 0.00 | 0.02 | 0.02 | 76 | 1006.5 |
| 20260902203837 | 55 | 190 | 4.3 | 13.0 | 0.00 | 0.02 | 0.02 | 77 | 1006.5 |
| 20260902203056 | 55 | 159 | 5.2 | 11.3 | 0.00 | 0.02 | 0.02 | 76 | 1006.6 |
| 20260902202320 | 55 | 224 | 5.2 | 15.6 | 0.01 | 0.02 | 0.02 | 75 | 1006.6 |
| 20260902201821 | 55 | 177 | 5.2 | 15.6 | 0.01 | 0.02 | 0.02 | 76 | 1006.6 |
| 20260902201321 | 55 | 144 | 4.3 | 12.2 | 0.02 | 0.02 | 0.02 | 76 | 1006.6 |
| 20260902200821 | 55 | 160 | 5.2 | 12.2 | 0.02 | 0.02 | 0.02 | 77 | 1006.6 |
| 20260902200318 | 55 | 185 | 5.2 | 12.2 | 0.02 | 0.02 | 0.02 | 77 | 1006.7 |
| 20260902195838 | 55 | 191 | 3.5 | 12.2 | 0.02 | 0.02 | 0.02 | 78 | 1006.5 |
| 20260902195831 | 55 | 196 | 4.3 | 11.3 | 0.02 | 0.02 | 0.02 | 77 | 1006.6 |
| 20260902195034 | 55 | 171 | 3.5 | 12.2 | 0.02 | 0.02 | 0.02 | 80 | 1006.7 |
| 20260902194300 | 54 | 189 | 4.3 | 12.2 | 0.02 | 0.02 | 0.02 | 79 | 1006.7 |
| 20260902193754 | 54 | 211 | 4.3 | 12.2 | 0.02 | 0.02 | 0.02 | 81 | 1006.8 |
| 20260902193248 | 55 | 220 | 4.3 | 12.2 | 0.02 | 0.02 | 0.02 | 81 | 1006.7 |
| 20260902192742 | 55 | 178 | 4.3 | 11.3 | 0.01 | 0.01 | 0.02 | 80 | 1006.7 |
| 20260902192236 | 56 | 195 | 4.3 | 11.3 | 0.01 | 0.01 | 0.01 | 78 | 1006.7 |
| 20260902191732 | 56 | 142 | 3.5 | 11.3 | 0.01 | 0.01 | 0.01 | 77 | 1006.7 |
| 20260902191223 | 57 | 159 | 4.3 | 9.6 | 0.00 | 0.00 | 0.00 | 74 | 1006.8 |
| 20260902190718 | 57 | 181 | 6.1 | 12.2 | 0.00 | 0.00 | 0.00 | 70 | 1006.7 |
| 20260902190457 | 58 | 213 | 4.3 | 12.2 | 0.00 | 0.00 | 0.00 | 69 | 1006.5 |
| 20260902185936 | 58 | 164 | 3.5 | 11.3 | 0.00 | 0.00 | 0.00 | 70 | 1006.6 |
| 20260902185713 | 58 | 164 | 3.5 | 11.3 | 0.00 | 0.00 | 0.00 | 70 | 1006.6 |
| 20260902185200 | 58 | 198 | 3.5 | 11.3 | 0.00 | 0.00 | 0.00 | 66 | 1006.6 |
| 20260902184654 | 59 | 211 | 2.6 | 9.6 | 0.00 | 0.00 | 0.00 | 65 | 1006.5 |
| 20260902184148 | 60 | 188 | 2.6 | 9.6 | 0.00 | 0.00 | 0.00 | 63 | 1006.6 |
| 20260902183931 | 60 | 199 | 3.5 | 9.6 | 0.00 | 0.00 | 0.00 | 59 | 1006.5 |
| 20260902183136 | 61 | 148 | 3.5 | 11.3 | 0.00 | 0.00 | 0.00 | 57 | 1006.4 |
| 20260902182630 | 61 | 138 | 3.5 | 10.4 | 0.00 | 0.00 | 0.00 | 54 | 1006.4 |
| 20260902182418 | 61 | 176 | 3.5 | 9.6 | 0.00 | 0.00 | 0.00 | 54 | 1006.2 |
| 20260902182413 | 61 | 188 | 3.5 | 8.7 | 0.00 | 0.00 | 0.00 | 55 | 1006.4 |
| 20260902181356 | 60 | 140 | 3.5 | 10.4 | 0.00 | 0.00 | 0.00 | 55 | 1006.2 |
| 20260902180824 | 60 | 180 | 3.5 | 10.4 | 0.00 | 0.00 | 0.00 | 56 | 1006.2 |
| 20260902180609 | 60 | 180 | 3.5 | 10.4 | 0.00 | 0.00 | 0.00 | 56 | 1006.2 |
| 20260902180100 | 60 | 117 | 3.5 | 7.8 | 0.00 | 0.00 | 0.00 | 56 | 1006.4 |
| 20260902175554 | 60 | 186 | 4.3 | 11.3 | 0.00 | 0.00 | 0.00 | 57 | 1006.2 |
| 20260902175048 | 60 | 188 | 4.3 | 11.3 | 0.00 | 0.00 | 0.00 | 56 | 1006.4 |
| 20260902174543 | 60 | 144 | 4.3 | 11.3 | 0.00 | 0.00 | 0.00 | 56 | 1006.4 |
| 20260902174035 | 60 | 147 | 4.3 | 11.3 | 0.00 | 0.00 | 0.00 | 56 | 1006.4 |
| 20260902173530 | 60 | 134 | 4.3 | 14.8 | 0.00 | 0.00 | 0.00 | 56 | 1006.2 |
| 20260902173024 | 60 | 130 | 4.3 | 14.8 | 0.00 | 0.00 | 0.00 | 57 | 1006.4 |
| 20260902172519 | 61 | 186 | 4.3 | 11.3 | 0.00 | 0.00 | 0.00 | 57 | 1006.4 |
| 20260902172016 | 61 | 200 | 4.3 | 13.0 | 0.00 | 0.00 | 0.00 | 56 | 1006.4 |
| 20260902171510 | 61 | 163 | 5.2 | 13.0 | 0.00 | 0.00 | 0.00 | 56 | 1006.4 |
| 20260902171001 | 61 | 150 | 5.2 | 13.0 | 0.00 | 0.00 | 0.00 | 56 | 1006.4 |
| 20260902170454 | 61 | 212 | 4.3 | 10.4 | 0.00 | 0.00 | 0.00 | 57 | 1006.2 |
| 20260902165948 | 61 | 205 | 5.2 | 11.3 | 0.00 | 0.00 | 0.00 | 57 | 1006.2 |
| 20260902165442 | 61 | 185 | 4.3 | 12.2 | 0.00 | 0.00 | 0.00 | 57 | 1006.2 |
| 20260902164936 | 61 | 113 | 4.3 | 11.3 | 0.00 | 0.00 | 0.00 | 57 | 1006.4 |
| 20260902164718 | 61 | 150 | 5.2 | 11.3 | 0.00 | 0.00 | 0.00 | 58 | 1006.4 |
| 20260902164015 | 61 | 240 | 5.2 | 11.3 | 0.00 | 0.00 | 0.00 | 59 | 1006.4 |
| 20260902163959 | 61 | 182 | 5.2 | 11.3 | 0.00 | 0.00 | 0.00 | 58 | 1006.4 |
| 20260902162945 | 61 | 197 | 5.2 | 13.0 | 0.00 | 0.00 | 0.00 | 59 | 1006.6 |
| 20260902162445 | 61 | 250 | 5.2 | 13.0 | 0.00 | 0.00 | 0.00 | 59 | 1006.6 |
| 20260902161943 | 61 | 198 | 4.3 | 12.2 | 0.00 | 0.00 | 0.00 | 59 | 1006.6 |
| 20260902161714 | 61 | 193 | 4.3 | 12.2 | 0.00 | 0.00 | 0.00 | 58 | 1006.6 |
| 20260902160943 | 61 | 219 | 4.3 | 10.4 | 0.00 | 0.00 | 0.00 | 59 | 1006.5 |
| 20260902160442 | 61 | 189 | 4.3 | 9.6 | 0.00 | 0.00 | 0.00 | 59 | 1006.6 |
| 20260902160216 | 61 | 178 | 3.5 | 9.6 | 0.00 | 0.00 | 0.00 | 60 | 1006.7 |
| 20260902155439 | 61 | 174 | 3.5 | 9.6 | 0.00 | 0.00 | 0.00 | 60 | 1006.7 |
| 20260902154936 | 60 | 190 | 3.5 | 10.4 | 0.00 | 0.00 | 0.00 | 61 | 1006.7 |
| 20260902154437 | 60 | 182 | 3.5 | 10.4 | 0.00 | 0.00 | 0.00 | 61 | 1006.8 |
| 20260902153936 | 60 | 188 | 3.5 | 10.4 | 0.00 | 0.00 | 0.00 | 63 | 1006.8 |
| 20260902153434 | 59 | 186 | 3.5 | 10.4 | 0.00 | 0.00 | 0.00 | 63 | 1006.9 |
| 20260902152935 | 58 | 173 | 2.6 | 8.7 | 0.00 | 0.00 | 0.00 | 67 | 1006.9 |
| 20260902152433 | 57 | 174 | 1.7 | 7.0 | 0.00 | 0.00 | 0.00 | 70 | 1007.0 |
| 20260902151932 | 56 | 148 | 0.9 | 6.1 | 0.00 | 0.00 | 0.00 | 72 | 1007.0 |
| 20260902151432 | 55 | 145 | 0.0 | 0.9 | 0.00 | 0.00 | 0.00 | 73 | 1007.2 |
| 20260902150932 | 55 | 145 | 0.0 | 3.5 | 0.00 | 0.00 | 0.00 | 74 | 1007.3 |
| 20260902150431 | 54 | 145 | 0.9 | 3.5 | 0.00 | 0.00 | 0.00 | 75 | 1007.2 |
| 20260902145932 | 54 | 134 | 0.0 | 2.6 | 0.00 | 0.00 | 0.00 | 75 | 1007.2 |
| 20260902145429 | 53 | 138 | 0.0 | 0.9 | 0.00 | 0.00 | 0.00 | 76 | 1007.3 |
| 20260902144929 | 53 | 138 | 0.0 | 0.9 | 0.00 | 0.00 | 0.00 | 77 | 1007.3 |
| 20260902144431 | 53 | 138 | 0.0 | 0.9 | 0.00 | 0.00 | 0.00 | 78 | 1007.3 |
| 20260902143929 | 53 | 138 | 0.0 | 0.9 | 0.00 | 0.00 | 0.00 | 78 | 1007.3 |
| 20260902143431 | 52 | 138 | 0.0 | 1.7 | 0.00 | 0.00 | 0.00 | 79 | 1007.4 |
| 20260902142931 | 52 | 138 | 0.0 | 1.7 | 0.00 | 0.00 | 0.00 | 79 | 1007.4 |
| 20260902142430 | 52 | 138 | 0.0 | 0.0 | 0.00 | 0.00 | 0.00 | 80 | 1007.4 |
| 20260902141939 | 52 | 138 | 0.0 | 0.0 | 0.00 | 0.00 | 0.00 | 80 | 1007.4 |
| 20260902141721 | 52 | 138 | 0.0 | 0.0 | 0.00 | 0.00 | 0.00 | 79 | 1007.7 |
| 20260902140928 | 52 | 138 | 0.0 | 0.9 | 0.00 | 0.00 | 0.00 | 79 | 1007.7 |
| 20260902140427 | 51 | 138 | 0.0 | 1.7 | 0.00 | 0.00 | 0.00 | 80 | 1007.7 |
| 20260902135926 | 51 | 138 | 0.0 | 2.6 | 0.00 | 0.00 | 0.00 | 80 | 1007.5 |
| 20260902135426 | 51 | 138 | 0.0 | 2.6 | 0.00 | 0.00 | 0.00 | 80 | 1007.5 |
| 20260902135204 | 51 | 138 | 0.9 | 3.5 | 0.00 | 0.00 | 0.00 | 80 | 1007.5 |
| 20260902134421 | 51 | 139 | 0.9 | 3.5 | 0.00 | 0.00 | 0.00 | 80 | 1007.7 |
| 20260902133921 | 51 | 136 | 0.9 | 3.5 | 0.00 | 0.00 | 0.00 | 80 | 1007.5 |
| 20260902133415 | 51 | 140 | 0.9 | 3.5 | 0.00 | 0.00 | 0.00 | 80 | 1007.7 |
| 20260902132910 | 51 | 138 | 1.7 | 3.5 | 0.00 | 0.00 | 0.00 | 80 | 1007.8 |
| 20260902132403 | 51 | 144 | 0.9 | 3.5 | 0.00 | 0.00 | 0.00 | 81 | 1007.5 |
| 20260902131908 | 51 | 146 | 0.9 | 2.6 | 0.00 | 0.00 | 0.00 | 80 | 1007.8 |
| 20260902130844 | 51 | 149 | 0.0 | 2.6 | 0.00 | 0.00 | 0.00 | 80 | 1007.9 |
| 20260902130339 | 51 | 148 | 0.9 | 2.6 | 0.00 | 0.00 | 0.00 | 80 | 1007.9 |
| 20260902125833 | 51 | 148 | 0.9 | 2.6 | 0.00 | 0.00 | 0.00 | 79 | 1008.0 |
| 20260902125327 | 51 | 149 | 0.9 | 3.5 | 0.00 | 0.00 | 0.00 | 79 | 1008.1 |
| 20260902124821 | 51 | 150 | 0.9 | 3.5 | 0.00 | 0.00 | 0.00 | 79 | 1008.1 |
| 20260902124315 | 52 | 157 | 0.9 | 2.6 | 0.00 | 0.00 | 0.00 | 79 | 1008.1 |
| 20260902123809 | 52 | 157 | 0.9 | 2.6 | 0.00 | 0.00 | 0.00 | 79 | 1008.1 |
| 20260902123306 | 52 | 157 | 0.0 | 1.7 | 0.00 | 0.00 | 0.00 | 79 | 1008.1 |
| 20260902122758 | 52 | 157 | 0.0 | 0.0 | 0.00 | 0.00 | 0.00 | 80 | 1008.2 |
| 20260902122252 | 51 | 157 | 0.0 | 0.0 | 0.00 | 0.00 | 0.00 | 80 | 1008.1 |
| 20260902121745 | 51 | 157 | 0.0 | 0.9 | 0.00 | 0.00 | 0.00 | 80 | 1008.1 |
| 20260902121240 | 51 | 157 | 0.0 | 0.9 | 0.00 | 0.00 | 0.00 | 80 | 1008.2 |
| 20260902120740 | 51 | 158 | 0.0 | 0.9 | 0.00 | 0.00 | 0.00 | 80 | 1008.2 |
| 20260902120240 | 51 | 158 | 0.0 | 0.9 | 0.00 | 0.00 | 0.00 | 81 | 1008.2 |
| 20260902115740 | 51 | 158 | 0.0 | 1.7 | 0.00 | 0.00 | 0.00 | 81 | 1008.4 |
| 20260902115246 | 51 | 158 | 0.0 | 1.7 | 0.00 | 0.00 | 0.00 | 81 | 1008.5 |
| 20260902114736 | 50 | 158 | 0.0 | 2.6 | 0.00 | 0.00 | 0.00 | 82 | 1008.5 |
| 20260902114235 | 50 | 153 | 0.0 | 2.6 | 0.00 | 0.00 | 0.00 | 82 | 1008.5 |
| 20260902113735 | 50 | 153 | 0.0 | 1.7 | 0.00 | 0.00 | 0.00 | 82 | 1008.5 |
| 20260902113235 | 50 | 147 | 0.0 | 1.7 | 0.00 | 0.00 | 0.00 | 81 | 1008.5 |
| 20260902112735 | 50 | 146 | 0.9 | 1.7 | 0.00 | 0.00 | 0.00 | 81 | 1008.4 |
| 20260902112237 | 50 | 146 | 0.9 | 1.7 | 0.00 | 0.00 | 0.00 | 81 | 1008.3 |
| 20260902111736 | 50 | 142 | 0.9 | 2.6 | 0.00 | 0.00 | 0.00 | 80 | 1008.3 |
| 20260902111236 | 50 | 142 | 1.7 | 3.5 | 0.00 | 0.00 | 0.00 | 80 | 1008.4 |
| 20260902110734 | 51 | 142 | 1.7 | 4.3 | 0.00 | 0.00 | 0.00 | 79 | 1008.4 |
| 20260902110236 | 51 | 141 | 0.9 | 4.3 | 0.00 | 0.00 | 0.00 | 80 | 1008.4 |
| 20260902105744 | 51 | 144 | 0.9 | 2.6 | 0.00 | 0.00 | 0.00 | 80 | 1008.5 |
| 20260902105520 | 51 | 146 | 0.9 | 4.3 | 0.00 | 0.00 | 0.00 | 79 | 1008.5 |
| 20260902104741 | 51 | 143 | 0.9 | 4.3 | 0.00 | 0.00 | 0.00 | 78 | 1008.5 |
| 20260902104243 | 51 | 161 | 0.9 | 3.5 | 0.00 | 0.00 | 0.00 | 78 | 1008.7 |
| 20260902103733 | 51 | 174 | 0.9 | 3.5 | 0.00 | 0.00 | 0.00 | 77 | 1008.6 |
| 20260902103503 | 52 | 176 | 0.9 | 3.5 | 0.00 | 0.00 | 0.00 | 76 | 1008.6 |
| 20260902102726 | 52 | 152 | 1.7 | 4.3 | 0.00 | 0.00 | 0.00 | 76 | 1008.6 |
| 20260902102225 | 52 | 188 | 1.7 | 4.3 | 0.00 | 0.00 | 0.00 | 77 | 1008.7 |
| 20260902101725 | 52 | 198 | 2.6 | 5.2 | 0.00 | 0.00 | 0.00 | 77 | 1008.6 |
| 20260902101224 | 52 | 214 | 2.6 | 5.2 | 0.00 | 0.00 | 0.00 | 78 | 1008.6 |
| 20260902100725 | 52 | 213 | 2.6 | 4.3 | 0.00 | 0.00 | 0.00 | 78 | 1008.6 |
| 20260902100225 | 51 | 205 | 2.6 | 5.2 | 0.00 | 0.00 | 0.00 | 78 | 1008.6 |
| 20260902095725 | 51 | 196 | 0.9 | 5.2 | 0.00 | 0.00 | 0.00 | 78 | 1008.5 |
| 20260902095227 | 52 | 229 | 0.9 | 3.5 | 0.00 | 0.00 | 0.00 | 78 | 1008.4 |
| 20260902094725 | 52 | 250 | 0.9 | 2.6 | 0.00 | 0.00 | 0.00 | 78 | 1008.5 |
| 20260902094221 | 52 | 254 | 1.7 | 2.6 | 0.00 | 0.00 | 0.00 | 78 | 1008.4 |
| 20260902093720 | 52 | 257 | 0.9 | 2.6 | 0.00 | 0.00 | 0.00 | 78 | 1008.4 |
| 20260902093221 | 52 | 252 | 0.9 | 2.6 | 0.00 | 0.00 | 0.00 | 78 | 1008.4 |
| 20260902092952 | 52 | 254 | 1.7 | 3.5 | 0.00 | 0.00 | 0.00 | 78 | 1008.6 |
| 20260902092221 | 52 | 256 | 1.7 | 3.5 | 0.00 | 0.00 | 0.00 | 78 | 1008.6 |
| 20260902091721 | 52 | 262 | 0.9 | 3.5 | 0.00 | 0.00 | 0.00 | 77 | 1008.6 |
| 20260902091221 | 52 | 260 | 0.9 | 3.5 | 0.00 | 0.00 | 0.00 | 77 | 1008.7 |
| 20260902090721 | 53 | 264 | 0.0 | 2.6 | 0.00 | 0.00 | 0.00 | 77 | 1008.9 |
| 20260902090447 | 53 | 280 | 0.0 | 1.7 | 0.00 | 0.00 | 0.00 | 76 | 1009.0 |
| 20260902085714 | 53 | 280 | 0.0 | 1.7 | 0.00 | 0.00 | 0.00 | 76 | 1009.1 |
| 20260902085209 | 53 | 282 | 0.0 | 1.7 | 0.00 | 0.00 | 0.00 | 76 | 1009.1 |
| 20260902084937 | 53 | 282 | 0.0 | 2.6 | 0.00 | 0.00 | 0.00 | 76 | 1009.0 |
| 20260902084156 | 53 | 284 | 0.0 | 2.6 | 0.00 | 0.00 | 0.00 | 76 | 1009.0 |
| 20260902083650 | 53 | 298 | 0.0 | 1.7 | 0.00 | 0.00 | 0.00 | 75 | 1008.9 |
| 20260902083414 | 53 | 298 | 0.0 | 2.6 | 0.00 | 0.00 | 0.00 | 75 | 1008.7 |
| 20260902082920 | 53 | 279 | 0.0 | 1.7 | 0.00 | 0.00 | 0.00 | 75 | 1008.7 |
| 20260902082915 | 53 | 298 | 0.0 | 2.6 | 0.00 | 0.00 | 0.00 | 76 | 1008.9 |
| 20260902081856 | 53 | 279 | 0.0 | 2.6 | 0.00 | 0.00 | 0.00 | 76 | 1008.6 |
| 20260902081119 | 53 | 280 | 0.0 | 2.6 | 0.00 | 0.00 | 0.00 | 75 | 1008.6 |
| 20260902080614 | 53 | 321 | 0.0 | 1.7 | 0.00 | 0.00 | 0.00 | 75 | 1008.6 |
| 20260902080108 | 54 | 326 | 0.0 | 0.0 | 0.00 | 0.00 | 0.00 | 74 | 1008.6 |
| 20260902075609 | 54 | 326 | 0.0 | 0.9 | 0.00 | 0.00 | 0.00 | 73 | 1008.5 |
| 20260902075057 | 55 | 326 | 0.0 | 1.7 | 0.00 | 0.00 | 0.00 | 73 | 1008.6 |
| 20260902074551 | 55 | 326 | 0.9 | 4.3 | 0.00 | 0.00 | 0.00 | 73 | 1008.5 |
| 20260902074044 | 55 | 326 | 1.7 | 6.1 | 0.00 | 0.00 | 0.00 | 73 | 1008.5 |
| 20260902073816 | 55 | 336 | 2.6 | 7.8 | 0.00 | 0.00 | 0.00 | 73 | 1008.4 |
| 20260902073032 | 55 | 320 | 3.5 | 7.8 | 0.00 | 0.00 | 0.00 | 73 | 1008.4 |
| 20260902072531 | 55 | 307 | 3.5 | 7.0 | 0.00 | 0.00 | 0.00 | 72 | 1008.4 |
| 20260902072031 | 56 | 331 | 3.5 | 7.0 | 0.00 | 0.00 | 0.00 | 72 | 1008.4 |
| 20260902071811 | 56 | 299 | 3.5 | 8.7 | 0.00 | 0.00 | 0.00 | 72 | 1008.4 |
| 20260902071029 | 56 | 296 | 4.3 | 8.7 | 0.00 | 0.00 | 0.00 | 72 | 1008.5 |
| 20260902070529 | 56 | 306 | 3.5 | 8.7 | 0.00 | 0.00 | 0.00 | 72 | 1008.5 |
| 20260902070028 | 56 | 323 | 3.5 | 7.0 | 0.00 | 0.00 | 0.00 | 72 | 1008.5 |
| 20260902065537 | 56 | 265 | 3.5 | 7.8 | 0.00 | 0.00 | 0.00 | 71 | 1008.6 |
| 20260902065300 | 56 | 264 | 3.5 | 7.8 | 0.00 | 0.00 | 0.00 | 71 | 1008.6 |
| 20260902064527 | 56 | 258 | 3.5 | 7.8 | 0.00 | 0.00 | 0.00 | 71 | 1008.6 |
| 20260902064257 | 56 | 300 | 3.5 | 9.6 | 0.00 | 0.00 | 0.00 | 71 | 1008.6 |
| 20260902063527 | 56 | 279 | 3.5 | 9.6 | 0.00 | 0.00 | 0.00 | 70 | 1008.7 |
| 20260902063029 | 57 | 250 | 4.3 | 8.7 | 0.00 | 0.00 | 0.00 | 70 | 1008.7 |
| 20260902062758 | 57 | 261 | 4.3 | 8.7 | 0.00 | 0.00 | 0.00 | 69 | 1008.7 |
| 20260902062027 | 57 | 288 | 3.5 | 8.7 | 0.00 | 0.00 | 0.00 | 69 | 1008.7 |
| 20260902061526 | 57 | 290 | 3.5 | 7.8 | 0.00 | 0.00 | 0.00 | 68 | 1008.7 |
| 20260902061026 | 57 | 294 | 3.5 | 7.8 | 0.00 | 0.00 | 0.00 | 68 | 1008.7 |
| 20260902060810 | 57 | 290 | 4.3 | 8.7 | 0.00 | 0.00 | 0.00 | 67 | 1008.7 |
| 20260902060035 | 58 | 285 | 3.5 | 8.7 | 0.00 | 0.00 | 0.00 | 67 | 1008.7 |
| 20260902055526 | 58 | 279 | 2.6 | 6.1 | 0.00 | 0.00 | 0.00 | 66 | 1008.9 |
| 20260902055023 | 58 | 296 | 3.5 | 7.0 | 0.00 | 0.00 | 0.00 | 66 | 1008.9 |
| 20260902054519 | 58 | 298 | 3.5 | 7.0 | 0.00 | 0.00 | 0.00 | 66 | 1009.0 |
| 20260902054011 | 58 | 274 | 4.3 | 10.4 | 0.00 | 0.00 | 0.00 | 65 | 1009.0 |
| 20260902053503 | 58 | 306 | 4.3 | 10.4 | 0.00 | 0.00 | 0.00 | 65 | 1008.9 |
| 20260902053001 | 58 | 294 | 3.5 | 7.8 | 0.00 | 0.00 | 0.00 | 64 | 1009.0 |
| 20260902052453 | 58 | 294 | 3.5 | 7.8 | 0.00 | 0.00 | 0.00 | 64 | 1008.9 |
| 20260902051948 | 58 | 293 | 3.5 | 7.8 | 0.00 | 0.00 | 0.00 | 63 | 1008.7 |
| 20260902051440 | 59 | 317 | 3.5 | 7.8 | 0.00 | 0.00 | 0.00 | 63 | 1008.7 |
| 20260902050934 | 59 | 327 | 3.5 | 7.8 | 0.00 | 0.00 | 0.00 | 63 | 1008.6 |
| 20260902050431 | 59 | 288 | 3.5 | 7.8 | 0.00 | 0.00 | 0.00 | 63 | 1008.6 |
| 20260902045922 | 59 | 277 | 2.6 | 7.0 | 0.00 | 0.00 | 0.00 | 62 | 1008.6 |
| 20260902045423 | 59 | 287 | 2.6 | 7.0 | 0.00 | 0.00 | 0.00 | 62 | 1008.6 |
| 20260902045153 | 59 | 293 | 1.7 | 6.1 | 0.00 | 0.00 | 0.00 | 62 | 1008.5 |
| 20260902044418 | 59 | 290 | 2.6 | 6.1 | 0.00 | 0.00 | 0.00 | 62 | 1008.5 |
| 20260902043928 | 59 | 314 | 2.6 | 8.7 | 0.00 | 0.00 | 0.00 | 61 | 1008.4 |
| 20260902043418 | 59 | 305 | 3.5 | 8.7 | 0.00 | 0.00 | 0.00 | 61 | 1008.4 |
| 20260902042918 | 59 | 296 | 3.5 | 7.8 | 0.00 | 0.00 | 0.00 | 62 | 1008.3 |
| 20260902042417 | 59 | 316 | 3.5 | 8.7 | 0.00 | 0.00 | 0.00 | 62 | 1008.3 |
| 20260902042150 | 59 | 294 | 3.5 | 8.7 | 0.00 | 0.00 | 0.00 | 62 | 1008.2 |
| 20260902041417 | 59 | 329 | 3.5 | 8.7 | 0.00 | 0.00 | 0.00 | 62 | 1008.2 |
| 20260902040918 | 60 | 331 | 4.3 | 9.6 | 0.00 | 0.00 | 0.00 | 62 | 1008.1 |
| 20260902040418 | 60 | 300 | 3.5 | 9.6 | 0.00 | 0.00 | 0.00 | 61 | 1008.0 |
| 20260902035918 | 60 | 279 | 4.3 | 8.7 | 0.00 | 0.00 | 0.00 | 61 | 1007.9 |
| 20260902035418 | 60 | 300 | 5.2 | 12.2 | 0.00 | 0.00 | 0.00 | 61 | 1007.8 |
| 20260902034916 | 60 | 283 | 4.3 | 12.2 | 0.00 | 0.00 | 0.00 | 61 | 1007.7 |
| 20260902034416 | 60 | 233 | 4.3 | 8.7 | 0.00 | 0.00 | 0.00 | 61 | 1007.7 |
| 20260902033916 | 60 | 284 | 5.2 | 10.4 | 0.00 | 0.00 | 0.00 | 61 | 1007.3 |
| 20260902033416 | 60 | 319 | 4.3 | 11.3 | 0.00 | 0.00 | 0.00 | 61 | 1007.5 |
| 20260902032916 | 61 | 244 | 3.5 | 11.3 | 0.00 | 0.00 | 0.00 | 61 | 1007.3 |
| 20260902032415 | 61 | 297 | 3.5 | 14.8 | 0.00 | 0.00 | 0.00 | 61 | 1007.3 |
| 20260902032204 | 61 | 348 | 6.1 | 14.8 | 0.00 | 0.00 | 0.00 | 60 | 1007.0 |
| 20260902032200 | 61 | 319 | 5.2 | 14.8 | 0.00 | 0.00 | 0.00 | 61 | 1007.2 |
| 20260902031157 | 62 | 277 | 6.1 | 14.8 | 0.00 | 0.00 | 0.00 | 60 | 1007.0 |
| 20260902030652 | 62 | 269 | 4.3 | 14.8 | 0.00 | 0.00 | 0.00 | 59 | 1006.8 |
| 20260902030154 | 62 | 332 | 6.1 | 14.8 | 0.00 | 0.00 | 0.00 | 58 | 1006.7 |
| 20260902025414 | 62 | 298 | 7.0 | 14.8 | 0.00 | 0.00 | 0.00 | 57 | 1006.7 |
| 20260902024916 | 63 | 275 | 6.1 | 13.9 | 0.00 | 0.00 | 0.00 | 57 | 1006.7 |
| 20260902024655 | 63 | 260 | 6.1 | 13.9 | 0.00 | 0.00 | 0.00 | 56 | 1006.6 |
| 20260902023922 | 63 | 286 | 7.0 | 13.9 | 0.00 | 0.00 | 0.00 | 55 | 1006.5 |
| 20260902023424 | 63 | 259 | 7.0 | 16.5 | 0.00 | 0.00 | 0.00 | 55 | 1006.4 |
| 20260902022922 | 64 | 303 | 6.1 | 16.5 | 0.00 | 0.00 | 0.00 | 54 | 1006.5 |
| 20260902022421 | 64 | 275 | 6.1 | 13.9 | 0.00 | 0.00 | 0.00 | 53 | 1006.4 |
| 20260902021917 | 64 | 304 | 7.0 | 14.8 | 0.00 | 0.00 | 0.00 | 52 | 1006.4 |
| 20260902021417 | 65 | 240 | 7.0 | 14.8 | 0.00 | 0.00 | 0.00 | 52 | 1006.4 |
| 20260902020913 | 65 | 295 | 6.1 | 13.0 | 0.00 | 0.00 | 0.00 | 51 | 1006.4 |
| 20260902020409 | 66 | 260 | 6.1 | 13.0 | 0.00 | 0.00 | 0.00 | 51 | 1006.4 |